| time (UTC) | temp F | wind direction | speed MPH | gust MPH | rain 1hr in | rain 24hr in | rain mn in | humidity % | barometer mb |
| 20260901085625 | 71 | 341 | 2.0 | 4.0 | 0.00 | 0.00 | 0.00 | 98 | 1023.1 |
| 20260901085125 | 71 | 339 | 2.0 | 4.0 | 0.00 | 0.00 | 0.00 | 98 | 1023.1 |
| 20260901084625 | 71 | 338 | 2.0 | 4.0 | 0.00 | 0.00 | 0.00 | 98 | 1023.1 |
| 20260901084124 | 71 | 7 | 2.0 | 4.0 | 0.00 | 0.00 | 0.00 | 98 | 1023.3 |
| 20260901083622 | 71 | 3 | 0.0 | 2.0 | 0.00 | 0.00 | 0.00 | 98 | 1023.3 |
| 20260901083100 | 71 | 3 | 0.0 | 2.0 | 0.00 | 0.00 | 0.00 | 98 | 1023.3 |
| 20260901082821 | 71 | 3 | 0.0 | 2.0 | 0.00 | 0.00 | 0.00 | 98 | 1023.3 |
| 20260901082048 | 71 | 3 | 1.0 | 2.0 | 0.00 | 0.00 | 0.00 | 98 | 1023.3 |
| 20260901081550 | 71 | 3 | 1.0 | 3.0 | 0.00 | 0.00 | 0.00 | 98 | 1023.3 |
| 20260901081043 | 71 | 3 | 0.0 | 3.0 | 0.00 | 0.00 | 0.00 | 98 | 1023.3 |
| 20260901080543 | 71 | 3 | 0.0 | 2.0 | 0.00 | 0.00 | 0.00 | 97 | 1023.3 |
| 20260901080023 | 72 | 3 | 2.0 | 2.0 | 0.00 | 0.00 | 0.00 | 97 | 1023.3 |
| 20260901075512 | 72 | 3 | 2.0 | 4.0 | 0.00 | 0.00 | 0.00 | 98 | 1023.4 |
| 20260901075000 | 72 | 3 | 2.0 | 4.0 | 0.00 | 0.00 | 0.00 | 98 | 1023.4 |
| 20260901074718 | 72 | 8 | 2.0 | 4.0 | 0.00 | 0.00 | 0.00 | 97 | 1023.4 |
| 20260901073945 | 72 | 8 | 2.0 | 4.0 | 0.00 | 0.00 | 0.00 | 98 | 1023.3 |
| 20260901073441 | 72 | 16 | 2.0 | 3.0 | 0.00 | 0.00 | 0.00 | 98 | 1023.3 |
| 20260901072933 | 72 | 17 | 2.0 | 4.0 | 0.00 | 0.00 | 0.00 | 97 | 1023.3 |
| 20260901072431 | 72 | 19 | 2.0 | 4.0 | 0.00 | 0.00 | 0.00 | 97 | 1023.5 |
| 20260901071930 | 72 | 0 | 2.0 | 4.0 | 0.00 | 0.00 | 0.00 | 97 | 1023.5 |
| 20260901071420 | 73 | 354 | 2.0 | 4.0 | 0.00 | 0.00 | 0.00 | 97 | 1023.5 |
| 20260901070920 | 73 | 12 | 2.0 | 4.0 | 0.00 | 0.00 | 0.00 | 97 | 1023.7 |
| 20260901070645 | 73 | 12 | 2.0 | 3.0 | 0.00 | 0.00 | 0.00 | 97 | 1023.7 |
| 20260901070138 | 73 | 12 | 2.0 | 3.0 | 0.00 | 0.00 | 0.00 | 97 | 1023.7 |
| 20260901065415 | 73 | 12 | 2.0 | 3.0 | 0.00 | 0.00 | 0.00 | 97 | 1023.8 |
| 20260901064913 | 73 | 12 | 2.0 | 4.0 | 0.00 | 0.00 | 0.00 | 97 | 1023.8 |
| 20260901064413 | 73 | 11 | 2.0 | 4.0 | 0.00 | 0.00 | 0.00 | 97 | 1023.8 |
| 20260901063912 | 73 | 1 | 2.0 | 4.0 | 0.00 | 0.00 | 0.00 | 97 | 1023.8 |
| 20260901063411 | 73 | 11 | 2.0 | 4.0 | 0.00 | 0.00 | 0.00 | 97 | 1023.8 |
| 20260901062905 | 73 | 10 | 2.0 | 2.0 | 0.00 | 0.00 | 0.00 | 97 | 1023.8 |
| 20260901062352 | 73 | 3 | 3.0 | 2.0 | 0.00 | 0.00 | 0.00 | 97 | 1023.9 |
| 20260901061356 | 73 | 3 | 3.0 | 3.0 | 0.00 | 0.00 | 0.00 | 97 | 1023.9 |
| 20260901060855 | 73 | 3 | 3.0 | 5.0 | 0.00 | 0.00 | 0.00 | 97 | 1023.9 |
| 20260901060342 | 73 | 2 | 3.0 | 5.0 | 0.00 | 0.00 | 0.00 | 97 | 1023.9 |
| 20260901055843 | 73 | 17 | 2.0 | 5.0 | 0.00 | 0.00 | 0.00 | 97 | 1023.9 |
| 20260901055340 | 74 | 359 | 2.0 | 5.0 | 0.00 | 0.00 | 0.00 | 97 | 1024.1 |
| 20260901054838 | 74 | 359 | 2.0 | 5.0 | 0.00 | 0.00 | 0.00 | 97 | 1024.1 |
| 20260901054335 | 74 | 15 | 2.0 | 4.0 | 0.00 | 0.00 | 0.00 | 96 | 1024.1 |
| 20260901053832 | 74 | 16 | 2.0 | 4.0 | 0.00 | 0.00 | 0.00 | 96 | 1023.9 |
| 20260901053330 | 74 | 14 | 2.0 | 3.0 | 0.00 | 0.00 | 0.00 | 97 | 1023.9 |
| 20260901052817 | 74 | 14 | 2.0 | 2.0 | 0.00 | 0.00 | 0.00 | 97 | 1023.9 |
| 20260901052316 | 74 | 14 | 2.0 | 3.0 | 0.00 | 0.00 | 0.00 | 96 | 1023.8 |
| 20260901051807 | 74 | 14 | 2.0 | 3.0 | 0.00 | 0.00 | 0.00 | 96 | 1023.8 |
| 20260901051754 | 74 | 14 | 2.0 | 4.0 | 0.00 | 0.00 | 0.00 | 96 | 1023.8 |
| 20260901050800 | 74 | 14 | 2.0 | 4.0 | 0.00 | 0.00 | 0.00 | 96 | 1023.8 |
| 20260901050257 | 74 | 14 | 2.0 | 4.0 | 0.00 | 0.00 | 0.00 | 96 | 1023.8 |
| 20260901045757 | 74 | 6 | 3.0 | 4.0 | 0.00 | 0.00 | 0.00 | 96 | 1023.8 |
| 20260901045258 | 74 | 1 | 3.0 | 4.0 | 0.00 | 0.00 | 0.00 | 96 | 1023.7 |
| 20260901044754 | 74 | 6 | 2.0 | 4.0 | 0.00 | 0.00 | 0.00 | 95 | 1023.7 |
| 20260901044255 | 74 | 14 | 2.0 | 4.0 | 0.00 | 0.00 | 0.00 | 95 | 1023.7 |
| 20260901043755 | 74 | 11 | 2.0 | 4.0 | 0.00 | 0.00 | 0.00 | 95 | 1023.8 |
| 20260901043252 | 74 | 14 | 2.0 | 3.0 | 0.00 | 0.00 | 0.00 | 95 | 1023.8 |
| 20260901042747 | 75 | 14 | 2.0 | 3.0 | 0.00 | 0.00 | 0.00 | 95 | 1023.8 |
| 20260901042250 | 75 | 14 | 2.0 | 3.0 | 0.00 | 0.00 | 0.00 | 95 | 1023.8 |
| 20260901041747 | 75 | 14 | 2.0 | 3.0 | 0.00 | 0.00 | 0.00 | 95 | 1023.8 |
| 20260901041247 | 75 | 14 | 2.0 | 2.0 | 0.00 | 0.00 | 0.00 | 95 | 1023.8 |
| 20260901041219 | 75 | 14 | 1.0 | 2.0 | 0.00 | 0.00 | 0.00 | 95 | 1023.7 |
| 20260901040239 | 75 | 14 | 1.0 | 2.0 | 0.00 | 0.00 | 0.00 | 94 | 1023.7 |
| 20260901035733 | 75 | 14 | 1.0 | 2.0 | 0.00 | 0.00 | 0.00 | 94 | 1023.7 |
| 20260901035233 | 75 | 14 | 1.0 | 2.0 | 0.00 | 0.00 | 0.00 | 94 | 1023.5 |
| 20260901034732 | 75 | 14 | 2.0 | 3.0 | 0.00 | 0.00 | 0.00 | 93 | 1023.5 |
| 20260901034706 | 75 | 11 | 2.0 | 4.0 | 0.00 | 0.00 | 0.00 | 93 | 1023.5 |
| 20260901033727 | 75 | 11 | 3.0 | 4.0 | 0.00 | 0.00 | 0.00 | 93 | 1023.5 |
| 20260901033222 | 75 | 13 | 3.0 | 5.0 | 0.00 | 0.00 | 0.00 | 93 | 1023.5 |
| 20260901032725 | 75 | 3 | 3.0 | 5.0 | 0.00 | 0.00 | 0.00 | 93 | 1023.5 |
| 20260901032209 | 75 | 6 | 3.0 | 5.0 | 0.00 | 0.00 | 0.00 | 92 | 1023.5 |
| 20260901031932 | 76 | 6 | 3.0 | 5.0 | 0.00 | 0.00 | 0.00 | 92 | 1023.5 |
| 20260901031203 | 76 | 6 | 3.0 | 5.0 | 0.00 | 0.00 | 0.00 | 92 | 1023.5 |
| 20260901030700 | 76 | 343 | 2.0 | 5.0 | 0.00 | 0.00 | 0.00 | 92 | 1023.5 |
| 20260901030202 | 76 | 8 | 2.0 | 3.0 | 0.00 | 0.00 | 0.00 | 91 | 1023.5 |
| 20260901025659 | 76 | 8 | 1.0 | 3.0 | 0.00 | 0.00 | 0.00 | 90 | 1023.4 |
| 20260901025200 | 76 | 8 | 1.0 | 3.0 | 0.00 | 0.00 | 0.00 | 90 | 1023.4 |
| 20260901024702 | 76 | 8 | 0.0 | 3.0 | 0.00 | 0.00 | 0.00 | 90 | 1023.4 |
| 20260901024419 | 76 | 8 | 0.0 | 3.0 | 0.00 | 0.00 | 0.00 | 89 | 1023.3 |
| 20260901024145 | 76 | 8 | 1.0 | 2.0 | 0.00 | 0.00 | 0.00 | 89 | 1023.3 |
| 20260901023118 | 76 | 8 | 1.0 | 3.0 | 0.00 | 0.00 | 0.00 | 89 | 1023.3 |
| 20260901022612 | 76 | 8 | 2.0 | 3.0 | 0.00 | 0.00 | 0.00 | 89 | 1023.4 |
| 20260901022112 | 76 | 8 | 0.0 | 3.0 | 0.00 | 0.00 | 0.00 | 89 | 1023.4 |
| 20260901021612 | 76 | 8 | 0.0 | 3.0 | 0.00 | 0.00 | 0.00 | 88 | 1023.4 |
| 20260901021101 | 76 | 8 | 1.0 | 2.0 | 0.00 | 0.00 | 0.00 | 88 | 1023.4 |
| 20260901020543 | 77 | 8 | 1.0 | 3.0 | 0.00 | 0.00 | 0.00 | 88 | 1023.4 |
| 20260901020039 | 77 | 8 | 0.0 | 3.0 | 0.00 | 0.00 | 0.00 | 87 | 1023.4 |
| 20260901015804 | 77 | 8 | 0.0 | 2.0 | 0.00 | 0.00 | 0.00 | 87 | 1023.1 |
| 20260901015020 | 77 | 8 | 1.0 | 2.0 | 0.00 | 0.00 | 0.00 | 86 | 1023.1 |
| 20260901014512 | 78 | 8 | 1.0 | 2.0 | 0.00 | 0.00 | 0.00 | 85 | 1023.1 |
| 20260901014014 | 78 | 8 | 2.0 | 4.0 | 0.00 | 0.00 | 0.00 | 84 | 1023.0 |
| 20260901013509 | 78 | 8 | 2.0 | 4.0 | 0.00 | 0.00 | 0.00 | 84 | 1023.0 |
| 20260901013228 | 78 | 346 | 2.0 | 4.0 | 0.00 | 0.00 | 0.00 | 84 | 1023.0 |
| 20260901012458 | 78 | 358 | 2.0 | 3.0 | 0.00 | 0.00 | 0.00 | 84 | 1023.0 |
| 20260901011957 | 78 | 336 | 2.0 | 3.0 | 0.00 | 0.00 | 0.00 | 84 | 1023.0 |
| 20260901011451 | 78 | 336 | 2.0 | 4.0 | 0.00 | 0.00 | 0.00 | 83 | 1023.0 |
| 20260901010942 | 79 | 336 | 2.0 | 4.0 | 0.00 | 0.00 | 0.00 | 83 | 1022.8 |
| 20260901010443 | 79 | 325 | 2.0 | 3.0 | 0.00 | 0.00 | 0.00 | 82 | 1022.8 |
| 20260901010136 | 79 | 319 | 0.0 | 3.0 | 0.00 | 0.00 | 0.00 | 81 | 1022.8 |
| 20260901005629 | 80 | 319 | 0.0 | 2.0 | 0.00 | 0.00 | 0.00 | 81 | 1022.7 |
| 20260901004911 | 80 | 319 | 0.0 | 3.0 | 0.00 | 0.00 | 0.00 | 81 | 1022.7 |
| 20260901004411 | 80 | 319 | 0.0 | 3.0 | 0.00 | 0.00 | 0.00 | 80 | 1022.7 |
| 20260901003907 | 80 | 320 | 1.0 | 2.0 | 0.00 | 0.00 | 0.00 | 76 | 1022.7 |
| 20260901003405 | 80 | 320 | 1.0 | 2.0 | 0.00 | 0.00 | 0.00 | 77 | 1022.7 |
| 20260901002902 | 81 | 319 | 0.0 | 2.0 | 0.00 | 0.00 | 0.00 | 78 | 1022.7 |
| 20260901002402 | 82 | 319 | 0.0 | 2.0 | 0.00 | 0.00 | 0.00 | 77 | 1022.6 |
| 20260901001902 | 82 | 319 | 1.0 | 2.0 | 0.00 | 0.00 | 0.00 | 75 | 1022.6 |
| 20260901001622 | 83 | 319 | 1.0 | 2.0 | 0.00 | 0.00 | 0.00 | 74 | 1022.6 |
| 20260901000837 | 83 | 319 | 2.0 | 3.0 | 0.00 | 0.00 | 0.00 | 70 | 1022.7 |
| 20260901000321 | 84 | 319 | 2.0 | 3.0 | 0.00 | 0.00 | 0.00 | 68 | 1022.7 |
| 20260901000035 | 85 | 315 | 1.0 | 3.0 | 0.00 | 0.00 | 0.00 | 66 | 1022.7 |
| 20260831235258 | 87 | 222 | 1.0 | 2.0 | 0.00 | 0.00 | 0.00 | 63 | 1022.7 |
| 20260831234755 | 88 | 222 | 0.0 | 2.0 | 0.00 | 0.00 | 0.00 | 61 | 1022.7 |
| 20260831234247 | 89 | 222 | 0.0 | 3.0 | 0.00 | 0.00 | 0.00 | 60 | 1022.7 |
| 20260831233747 | 90 | 222 | 0.0 | 3.0 | 0.00 | 0.00 | 0.00 | 60 | 1022.7 |
| 20260831233216 | 90 | 222 | 0.0 | 2.0 | 0.00 | 0.00 | 0.00 | 58 | 1022.7 |
| 20260831232715 | 90 | 222 | 0.0 | 1.0 | 0.00 | 0.00 | 0.00 | 59 | 1022.8 |
| 20260831232211 | 90 | 222 | 0.0 | 1.0 | 0.00 | 0.00 | 0.00 | 60 | 1022.8 |
| 20260831231710 | 90 | 222 | 0.0 | 1.0 | 0.00 | 0.00 | 0.00 | 61 | 1022.8 |
| 20260831231210 | 90 | 222 | 0.0 | 2.0 | 0.00 | 0.00 | 0.00 | 60 | 1022.8 |
| 20260831230642 | 90 | 222 | 0.0 | 2.0 | 0.00 | 0.00 | 0.00 | 60 | 1022.8 |
| 20260831230141 | 90 | 222 | 0.0 | 2.0 | 0.00 | 0.00 | 0.00 | 61 | 1022.8 |
| 20260831225641 | 90 | 222 | 2.0 | 0.0 | 0.00 | 0.00 | 0.00 | 59 | 1022.8 |
| 20260831225135 | 90 | 222 | 2.0 | 0.0 | 0.00 | 0.00 | 0.00 | 59 | 1022.8 |
| 20260831224613 | 90 | 222 | 2.0 | 3.0 | 0.00 | 0.00 | 0.00 | 59 | 1022.8 |
| 20260831224113 | 90 | 222 | 1.0 | 4.0 | 0.00 | 0.00 | 0.00 | 60 | 1023.0 |
| 20260831223611 | 90 | 223 | 1.0 | 4.0 | 0.00 | 0.00 | 0.00 | 59 | 1023.0 |
| 20260831223115 | 90 | 226 | 1.0 | 4.0 | 0.00 | 0.00 | 0.00 | 61 | 1023.0 |
| 20260831222555 | 90 | 226 | 1.0 | 4.0 | 0.00 | 0.00 | 0.00 | 60 | 1023.0 |
| 20260831222055 | 90 | 246 | 2.0 | 3.0 | 0.00 | 0.00 | 0.00 | 57 | 1023.0 |
| 20260831222041 | 89 | 246 | 2.0 | 3.0 | 0.00 | 0.00 | 0.00 | 59 | 1023.0 |
| 20260831221042 | 90 | 246 | 2.0 | 3.0 | 0.00 | 0.00 | 0.00 | 59 | 1023.1 |
| 20260831220540 | 90 | 248 | 2.0 | 3.0 | 0.00 | 0.00 | 0.00 | 58 | 1023.1 |
| 20260831220258 | 90 | 355 | 2.0 | 3.0 | 0.00 | 0.00 | 0.00 | 55 | 1023.1 |
| 20260831215748 | 90 | 355 | 2.0 | 3.0 | 0.00 | 0.00 | 0.00 | 56 | 1023.3 |
| 20260831215016 | 90 | 352 | 2.0 | 5.0 | 0.00 | 0.00 | 0.00 | 59 | 1023.3 |
| 20260831214511 | 90 | 352 | 2.0 | 5.0 | 0.00 | 0.00 | 0.00 | 56 | 1023.3 |
| 20260831214010 | 90 | 17 | 2.0 | 4.0 | 0.00 | 0.00 | 0.00 | 56 | 1023.1 |
| 20260831213513 | 90 | 269 | 2.0 | 4.0 | 0.00 | 0.00 | 0.00 | 58 | 1023.1 |
| 20260831213011 | 89 | 16 | 2.0 | 4.0 | 0.00 | 0.00 | 0.00 | 58 | 1023.1 |
| 20260831212511 | 89 | 349 | 2.0 | 4.0 | 0.00 | 0.00 | 0.00 | 57 | 1023.3 |
| 20260831212009 | 89 | 201 | 2.0 | 4.0 | 0.00 | 0.00 | 0.00 | 57 | 1023.3 |
| 20260831211731 | 89 | 200 | 2.0 | 4.0 | 0.00 | 0.00 | 0.00 | 59 | 1023.3 |
| 20260831211006 | 88 | 220 | 2.0 | 3.0 | 0.00 | 0.00 | 0.00 | 59 | 1023.5 |
| 20260831210506 | 87 | 220 | 2.0 | 4.0 | 0.00 | 0.00 | 0.00 | 61 | 1023.5 |
| 20260831210229 | 87 | 220 | 3.0 | 4.0 | 0.00 | 0.00 | 0.00 | 61 | 1023.5 |
| 20260831205503 | 86 | 234 | 3.0 | 5.0 | 0.00 | 0.00 | 0.00 | 63 | 1023.5 |
| 20260831205000 | 85 | 204 | 3.0 | 5.0 | 0.00 | 0.00 | 0.00 | 62 | 1023.5 |
| 20260831204458 | 85 | 212 | 3.0 | 5.0 | 0.00 | 0.00 | 0.00 | 65 | 1023.5 |
| 20260831203959 | 84 | 211 | 4.0 | 6.0 | 0.00 | 0.00 | 0.00 | 65 | 1023.8 |
| 20260831203708 | 83 | 197 | 4.0 | 6.0 | 0.00 | 0.00 | 0.00 | 69 | 1023.8 |
| 20260831203202 | 83 | 209 | 3.0 | 8.0 | 0.00 | 0.00 | 0.00 | 69 | 1023.8 |
| 20260831202438 | 83 | 212 | 3.0 | 8.0 | 0.00 | 0.00 | 0.00 | 71 | 1023.9 |
| 20260831201938 | 83 | 217 | 3.0 | 9.0 | 0.00 | 0.00 | 0.00 | 71 | 1023.9 |
| 20260831201438 | 83 | 213 | 3.0 | 9.0 | 0.00 | 0.00 | 0.00 | 70 | 1023.9 |
| 20260831200938 | 83 | 251 | 2.0 | 6.0 | 0.00 | 0.00 | 0.00 | 72 | 1023.9 |
| 20260831200438 | 83 | 211 | 2.0 | 5.0 | 0.00 | 0.00 | 0.00 | 71 | 1023.9 |
| 20260831195938 | 83 | 273 | 1.0 | 3.0 | 0.00 | 0.00 | 0.00 | 72 | 1023.9 |
| 20260831195437 | 82 | 71 | 2.0 | 2.0 | 0.00 | 0.00 | 0.00 | 73 | 1024.0 |
| 20260831194929 | 82 | 71 | 2.0 | 2.0 | 0.00 | 0.00 | 0.00 | 73 | 1024.0 |
| 20260831194635 | 82 | 71 | 2.0 | 4.0 | 0.00 | 0.00 | 0.00 | 73 | 1024.0 |
| 20260831194122 | 82 | 71 | 2.0 | 4.0 | 0.00 | 0.00 | 0.00 | 73 | 1024.0 |
| 20260831193356 | 82 | 74 | 2.0 | 4.0 | 0.00 | 0.00 | 0.00 | 73 | 1024.0 |
| 20260831192850 | 82 | 73 | 2.0 | 4.0 | 0.00 | 0.00 | 0.00 | 72 | 1024.0 |
| 20260831192623 | 82 | 70 | 2.0 | 4.0 | 0.00 | 0.00 | 0.00 | 73 | 1024.2 |
| 20260831192112 | 82 | 70 | 2.0 | 4.0 | 0.00 | 0.00 | 0.00 | 72 | 1024.2 |
| 20260831191351 | 82 | 42 | 2.0 | 5.0 | 0.00 | 0.00 | 0.00 | 71 | 1024.2 |
| 20260831190850 | 83 | 62 | 3.0 | 5.0 | 0.00 | 0.00 | 0.00 | 69 | 1024.3 |
| 20260831190351 | 85 | 74 | 3.0 | 6.0 | 0.00 | 0.00 | 0.00 | 66 | 1024.3 |
| 20260831185851 | 86 | 328 | 1.0 | 6.0 | 0.00 | 0.00 | 0.00 | 62 | 1024.3 |
| 20260831185826 | 88 | 80 | 1.0 | 4.0 | 0.00 | 0.00 | 0.00 | 62 | 1024.1 |
| 20260831185042 | 88 | 289 | 2.0 | 4.0 | 0.00 | 0.00 | 0.00 | 60 | 1024.1 |
| 20260831184929 | 88 | 257 | 2.0 | 3.0 | 0.00 | 0.00 | 0.00 | 59 | 1024.1 |
| 20260831183838 | 88 | 286 | 2.0 | 4.0 | 0.00 | 0.00 | 0.00 | 59 | 1024.1 |
| 20260831183337 | 89 | 265 | 2.0 | 5.0 | 0.00 | 0.00 | 0.00 | 60 | 1024.1 |
| 20260831182827 | 89 | 314 | 4.0 | 6.0 | 0.00 | 0.00 | 0.00 | 60 | 1024.1 |
| 20260831182323 | 89 | 350 | 4.0 | 6.0 | 0.00 | 0.00 | 0.00 | 58 | 1024.3 |
| 20260831181823 | 89 | 204 | 3.0 | 7.0 | 0.00 | 0.00 | 0.00 | 59 | 1024.3 |
| 20260831181326 | 88 | 215 | 3.0 | 7.0 | 0.00 | 0.00 | 0.00 | 60 | 1024.3 |
| 20260831180823 | 87 | 164 | 3.0 | 7.0 | 0.00 | 0.00 | 0.00 | 62 | 1024.5 |
| 20260831180304 | 87 | 207 | 3.0 | 7.0 | 0.00 | 0.00 | 0.00 | 63 | 1024.5 |
| 20260831175804 | 86 | 201 | 2.0 | 5.0 | 0.00 | 0.00 | 0.00 | 67 | 1024.5 |
| 20260831175305 | 85 | 214 | 2.0 | 5.0 | 0.00 | 0.00 | 0.00 | 68 | 1024.6 |
| 20260831174800 | 85 | 2 | 2.0 | 4.0 | 0.00 | 0.00 | 0.00 | 67 | 1024.6 |
| 20260831174524 | 85 | 2 | 2.0 | 6.0 | 0.00 | 0.00 | 0.00 | 63 | 1024.6 |
| 20260831173751 | 85 | 261 | 2.0 | 6.0 | 0.00 | 0.00 | 0.00 | 66 | 1024.7 |
| 20260831173232 | 85 | 211 | 2.0 | 4.0 | 0.00 | 0.00 | 0.00 | 68 | 1024.7 |
| 20260831172731 | 85 | 272 | 2.0 | 6.0 | 0.00 | 0.00 | 0.00 | 67 | 1024.7 |
| 20260831172449 | 85 | 323 | 2.0 | 6.0 | 0.00 | 0.00 | 0.00 | 65 | 1024.8 |
| 20260831171728 | 85 | 186 | 2.0 | 4.0 | 0.00 | 0.00 | 0.00 | 69 | 1024.8 |
| 20260831171452 | 85 | 248 | 2.0 | 5.0 | 0.00 | 0.00 | 0.00 | 68 | 1025.0 |
| 20260831170722 | 85 | 237 | 2.0 | 5.0 | 0.00 | 0.00 | 0.00 | 69 | 1025.0 |
| 20260831170221 | 85 | 292 | 2.0 | 4.0 | 0.00 | 0.00 | 0.00 | 70 | 1025.0 |
| 20260831165721 | 85 | 0 | 3.0 | 8.0 | 0.00 | 0.00 | 0.00 | 69 | 1025.2 |
| 20260831165419 | 85 | 221 | 2.0 | 6.0 | 0.00 | 0.00 | 0.00 | 71 | 1025.2 |
| 20260831165300 | 85 | 217 | 3.0 | 8.0 | 0.00 | 0.00 | 0.00 | 70 | 1025.2 |
| 20260831164220 | 85 | 190 | 2.0 | 6.0 | 0.00 | 0.00 | 0.00 | 71 | 1025.3 |
| 20260831163720 | 85 | 44 | 2.0 | 6.0 | 0.00 | 0.00 | 0.00 | 69 | 1025.3 |
| 20260831163220 | 85 | 254 | 2.0 | 6.0 | 0.00 | 0.00 | 0.00 | 71 | 1025.3 |
| 20260831162720 | 84 | 211 | 2.0 | 5.0 | 0.00 | 0.00 | 0.00 | 76 | 1025.4 |
| 20260831162444 | 84 | 124 | 2.0 | 5.0 | 0.00 | 0.00 | 0.00 | 74 | 1025.4 |
| 20260831161717 | 83 | 198 | 3.0 | 5.0 | 0.00 | 0.00 | 0.00 | 76 | 1025.4 |
| 20260831161218 | 83 | 3 | 3.0 | 5.0 | 0.00 | 0.00 | 0.00 | 77 | 1025.6 |
| 20260831160718 | 83 | 321 | 2.0 | 5.0 | 0.00 | 0.00 | 0.00 | 74 | 1025.6 |
| 20260831160218 | 83 | 185 | 2.0 | 5.0 | 0.00 | 0.00 | 0.00 | 75 | 1025.6 |
| 20260831155710 | 83 | 234 | 2.0 | 5.0 | 0.00 | 0.00 | 0.00 | 75 | 1025.4 |
| 20260831155210 | 82 | 187 | 2.0 | 5.0 | 0.00 | 0.00 | 0.00 | 76 | 1025.4 |
| 20260831154710 | 82 | 188 | 2.0 | 5.0 | 0.00 | 0.00 | 0.00 | 76 | 1025.4 |
| 20260831154210 | 82 | 191 | 2.0 | 3.0 | 0.00 | 0.00 | 0.00 | 77 | 1025.4 |
| 20260831153708 | 80 | 257 | 2.0 | 2.0 | 0.00 | 0.00 | 0.00 | 81 | 1025.4 |
| 20260831153144 | 80 | 257 | 2.0 | 2.0 | 0.00 | 0.00 | 0.00 | 81 | 1025.4 |
| 20260831152642 | 80 | 257 | 2.0 | 4.0 | 0.00 | 0.00 | 0.00 | 81 | 1025.4 |
| 20260831152137 | 80 | 257 | 2.0 | 4.0 | 0.00 | 0.00 | 0.00 | 81 | 1025.4 |
| 20260831151613 | 80 | 56 | 2.0 | 4.0 | 0.00 | 0.00 | 0.00 | 80 | 1025.4 |
| 20260831151326 | 79 | 54 | 3.0 | 4.0 | 0.00 | 0.00 | 0.00 | 80 | 1025.6 |
| 20260831150605 | 78 | 213 | 2.0 | 4.0 | 0.00 | 0.00 | 0.00 | 83 | 1025.6 |
| 20260831150051 | 78 | 213 | 2.0 | 6.0 | 0.00 | 0.00 | 0.00 | 83 | 1025.6 |
| 20260831145549 | 78 | 213 | 2.0 | 6.0 | 0.00 | 0.00 | 0.00 | 83 | 1025.6 |
| 20260831145045 | 78 | 202 | 2.0 | 4.0 | 0.00 | 0.00 | 0.00 | 83 | 1025.6 |
| 20260831144545 | 78 | 191 | 2.0 | 4.0 | 0.00 | 0.00 | 0.00 | 83 | 1025.6 |
| 20260831144038 | 78 | 259 | 2.0 | 4.0 | 0.00 | 0.00 | 0.00 | 82 | 1025.3 |
| 20260831143538 | 77 | 258 | 2.0 | 4.0 | 0.00 | 0.00 | 0.00 | 83 | 1025.3 |
| 20260831143035 | 77 | 350 | 1.0 | 4.0 | 0.00 | 0.00 | 0.00 | 85 | 1025.3 |
| 20260831142754 | 77 | 191 | 1.0 | 4.0 | 0.00 | 0.00 | 0.00 | 85 | 1025.3 |
| 20260831142028 | 77 | 177 | 2.0 | 3.0 | 0.00 | 0.00 | 0.00 | 87 | 1025.3 |
| 20260831141528 | 76 | 175 | 2.0 | 4.0 | 0.00 | 0.00 | 0.00 | 87 | 1025.3 |
| 20260831141217 | 76 | 178 | 2.0 | 3.0 | 0.00 | 0.00 | 0.00 | 89 | 1025.3 |
| 20260831141104 | 76 | 72 | 2.0 | 4.0 | 0.00 | 0.00 | 0.00 | 87 | 1025.3 |
| 20260831140020 | 75 | 188 | 1.0 | 4.0 | 0.00 | 0.00 | 0.00 | 90 | 1025.3 |
| 20260831135516 | 75 | 68 | 1.0 | 4.0 | 0.00 | 0.00 | 0.00 | 91 | 1025.4 |
| 20260831135013 | 74 | 17 | 2.0 | 4.0 | 0.00 | 0.00 | 0.00 | 91 | 1025.4 |
| 20260831134506 | 74 | 9 | 2.0 | 4.0 | 0.00 | 0.00 | 0.00 | 92 | 1025.4 |
| 20260831134001 | 74 | 9 | 2.0 | 4.0 | 0.00 | 0.00 | 0.00 | 92 | 1025.4 |
| 20260831133458 | 74 | 356 | 2.0 | 4.0 | 0.00 | 0.00 | 0.00 | 93 | 1025.4 |
| 20260831133001 | 73 | 356 | 2.0 | 4.0 | 0.00 | 0.00 | 0.00 | 93 | 1025.4 |
| 20260831132455 | 73 | 10 | 2.0 | 4.0 | 0.00 | 0.00 | 0.00 | 94 | 1025.4 |
| 20260831132218 | 73 | 54 | 2.0 | 4.0 | 0.00 | 0.00 | 0.00 | 95 | 1025.4 |
| 20260831131452 | 72 | 24 | 2.0 | 4.0 | 0.00 | 0.00 | 0.00 | 95 | 1025.4 |
| 20260831130945 | 72 | 61 | 2.0 | 4.0 | 0.00 | 0.00 | 0.00 | 96 | 1025.4 |
| 20260831130443 | 72 | 14 | 2.0 | 4.0 | 0.00 | 0.00 | 0.00 | 96 | 1025.4 |
| 20260831125942 | 71 | 14 | 2.0 | 4.0 | 0.00 | 0.00 | 0.00 | 97 | 1025.4 |
| 20260831125710 | 71 | 1 | 2.0 | 5.0 | 0.00 | 0.00 | 0.00 | 97 | 1025.4 |
| 20260831124943 | 71 | 20 | 2.0 | 5.0 | 0.00 | 0.00 | 0.00 | 97 | 1025.4 |
| 20260831124436 | 71 | 53 | 2.0 | 4.0 | 0.00 | 0.00 | 0.00 | 98 | 1025.4 |
| 20260831123930 | 70 | 37 | 2.0 | 4.0 | 0.00 | 0.00 | 0.00 | 98 | 1025.3 |
| 20260831123430 | 70 | 14 | 2.0 | 3.0 | 0.00 | 0.00 | 0.00 | 98 | 1025.3 |
| 20260831122923 | 70 | 14 | 1.0 | 3.0 | 0.00 | 0.00 | 0.00 | 98 | 1025.3 |
| 20260831122422 | 70 | 14 | 1.0 | 3.0 | 0.00 | 0.00 | 0.00 | 99 | 1025.3 |
| 20260831122132 | 70 | 14 | 1.0 | 2.0 | 0.00 | 0.00 | 0.00 | 99 | 1025.3 |
| 20260831121402 | 70 | 14 | 1.0 | 2.0 | 0.00 | 0.00 | 0.00 | 99 | 1025.3 |
| 20260831121117 | 69 | 14 | 2.0 | 2.0 | 0.00 | 0.00 | 0.00 | 99 | 1025.0 |
| 20260831120347 | 69 | 14 | 2.0 | 3.0 | 0.00 | 0.00 | 0.00 | 99 | 1025.0 |
| 20260831115848 | 69 | 14 | 2.0 | 3.0 | 0.00 | 0.00 | 0.00 | 99 | 1025.0 |
| 20260831115345 | 69 | 14 | 2.0 | 3.0 | 0.00 | 0.00 | 0.00 | 99 | 1025.0 |
| 20260831115106 | 69 | 14 | 2.0 | 3.0 | 0.00 | 0.00 | 0.00 | 99 | 1025.0 |
| 20260831114558 | 69 | 14 | 2.0 | 3.0 | 0.00 | 0.00 | 0.00 | 99 | 1025.0 |
| 20260831113838 | 69 | 4 | 2.0 | 3.0 | 0.00 | 0.00 | 0.00 | 99 | 1024.9 |
| 20260831113336 | 69 | 4 | 2.0 | 3.0 | 0.00 | 0.00 | 0.00 | 99 | 1024.9 |
| 20260831112833 | 69 | 10 | 2.0 | 4.0 | 0.00 | 0.00 | 0.00 | 99 | 1024.9 |
| 20260831112604 | 69 | 10 | 2.0 | 4.0 | 0.00 | 0.00 | 0.00 | 99 | 1024.9 |
| 20260831111828 | 69 | 2 | 1.0 | 3.0 | 0.00 | 0.00 | 0.00 | 99 | 1024.9 |
| 20260831111327 | 69 | 1 | 1.0 | 3.0 | 0.00 | 0.00 | 0.00 | 99 | 1024.9 |
| 20260831110813 | 69 | 1 | 1.0 | 3.0 | 0.00 | 0.00 | 0.00 | 99 | 1024.7 |
| 20260831110310 | 69 | 1 | 1.0 | 2.0 | 0.00 | 0.00 | 0.00 | 99 | 1024.7 |
| 20260831110022 | 69 | 1 | 0.0 | 2.0 | 0.00 | 0.00 | 0.00 | 99 | 1024.7 |
| 20260831105257 | 69 | 1 | 0.0 | 2.0 | 0.00 | 0.00 | 0.00 | 99 | 1024.6 |
| 20260831104752 | 69 | 1 | 0.0 | 2.0 | 0.00 | 0.00 | 0.00 | 98 | 1024.6 |
| 20260831104250 | 69 | 1 | 0.0 | 2.0 | 0.00 | 0.00 | 0.00 | 98 | 1024.6 |
| 20260831103953 | 69 | 1 | 0.0 | 2.0 | 0.00 | 0.00 | 0.00 | 99 | 1024.4 |
| 20260831103230 | 69 | 1 | 0.0 | 2.0 | 0.00 | 0.00 | 0.00 | 99 | 1024.4 |
| 20260831102730 | 69 | 1 | 0.0 | 0.0 | 0.00 | 0.00 | 0.00 | 98 | 1024.4 |
| 20260831102218 | 69 | 1 | 0.0 | 0.0 | 0.00 | 0.00 | 0.00 | 98 | 1024.2 |
| 20260831101703 | 69 | 1 | 0.0 | 2.0 | 0.00 | 0.00 | 0.00 | 98 | 1024.2 |
| 20260831101202 | 69 | 1 | 0.0 | 2.0 | 0.00 | 0.00 | 0.00 | 98 | 1024.0 |
| 20260831100626 | 69 | 1 | 0.0 | 2.0 | 0.00 | 0.00 | 0.00 | 98 | 1024.0 |
| 20260831100052 | 69 | 1 | 0.0 | 3.0 | 0.00 | 0.00 | 0.00 | 98 | 1024.0 |
| 20260831095550 | 69 | 1 | 0.0 | 3.0 | 0.00 | 0.00 | 0.00 | 98 | 1024.0 |
| 20260831095025 | 69 | 1 | 0.0 | 2.0 | 0.00 | 0.00 | 0.00 | 98 | 1024.0 |
| 20260831094526 | 69 | 1 | 0.0 | 2.0 | 0.00 | 0.00 | 0.00 | 98 | 1024.0 |
| 20260831094024 | 69 | 1 | 1.0 | 0.0 | 0.00 | 0.00 | 0.00 | 98 | 1024.0 |
| 20260831093524 | 69 | 1 | 1.0 | 2.0 | 0.00 | 0.00 | 0.00 | 98 | 1024.0 |
| 20260831093000 | 69 | 1 | 0.0 | 4.0 | 0.00 | 0.00 | 0.00 | 98 | 1024.0 |
| 20260831092445 | 69 | 1 | 0.0 | 4.0 | 0.00 | 0.00 | 0.00 | 98 | 1024.0 |
| 20260831092204 | 69 | 1 | 0.0 | 0.0 | 0.00 | 0.00 | 0.00 | 97 | 1024.0 |
| 20260831091402 | 69 | 1 | 0.0 | 0.0 | 0.00 | 0.00 | 0.00 | 97 | 1024.0 |
| 20260831090847 | 69 | 1 | 0.0 | 0.0 | 0.00 | 0.00 | 0.00 | 97 | 1024.0 |
| 20260831090339 | 70 | 1 | 0.0 | 0.0 | 0.00 | 0.00 | 0.00 | 97 | 1024.0 |
| 20260831085831 | 70 | 1 | 2.0 | 3.0 | 0.00 | 0.00 | 0.00 | 97 | 1024.0 |